SM5FGQ-2 Weather Reports


Display with metric or nautical units.
time (UTC)temp
F
wind
direction
speed
MPH
gust
MPH
rain 1hr
in
rain 24hr
in
rain mn
in
humidity
%
barometer
mb
20260905020020 52 283 3.0 7.0 0.00 0.29 0.01 91 991.7
20260905013110 52 292 3.0 12.0 0.00 0.29 0.01 91 991.6
20260905010101 52 269 3.0 8.0 0.00 0.29 0.01 90 991.5
20260905003050 52 284 4.0 9.0 0.01 0.29 0.01 90 991.4
20260905000040 52 280 4.0 9.0 0.01 0.29 0.01 91 991.4
20260904233030 53 276 4.0 7.0 0.00 0.28 0.00 91 991.3
20260904230020 53 279 5.0 12.0 0.00 0.28 0.00 91 991.2
20260904223111 53 298 4.0 10.0 0.00 0.28 0.00 93 991.1
20260904220121 53 278 3.0 7.0 0.00 0.28 0.00 92 990.9
20260904213111 53 274 2.0 4.0 0.00 0.28 0.28 90 990.9
20260904210040 54 280 2.0 6.0 0.00 0.28 0.28 86 990.8
20260904203031 55 258 3.0 9.0 0.00 0.28 0.28 85 990.8
20260904200020 55 255 3.0 8.0 0.00 0.28 0.28 84 990.8
20260904193112 55 216 1.0 6.0 0.00 0.28 0.28 84 990.9
20260904190101 55 138 0.0 2.0 0.00 0.28 0.28 87 991.0
20260904183050 56 116 0.0 2.0 0.00 0.28 0.28 85 991.0
20260904180040 58 118 1.0 3.0 0.00 0.28 0.28 81 991.2
20260904173030 59 221 1.0 4.0 0.00 0.28 0.28 79 991.2
20260904170020 59 162 1.0 4.0 0.00 0.28 0.28 83 991.3
20260904163111 60 133 1.0 3.0 0.00 0.28 0.28 81 991.4
20260904153050 63 154 1.0 5.0 0.00 0.28 0.28 78 991.9
20260904150042 62 112 1.0 3.0 0.00 0.28 0.28 83 992.2
20260904143031 62 128 1.0 3.0 0.00 0.28 0.28 83 992.5
20260904140043 62 131 1.0 4.0 0.00 0.28 0.28 84 992.8
20260904133111 61 140 1.0 6.0 0.00 0.28 0.28 84 993.2
20260904130101 62 124 1.0 3.0 0.00 0.28 0.28 84 993.5
20260904123051 61 111 1.0 3.0 0.00 0.28 0.28 85 993.7
20260904120103 61 171 1.0 3.0 0.00 0.28 0.28 84 994.0
20260904113032 62 230 0.0 2.0 0.00 0.28 0.28 84 994.3
20260904110021 61 254 1.0 6.0 0.00 0.28 0.28 88 994.7
20260904103132 60 169 0.0 4.0 0.02 0.28 0.28 89 994.8
20260904093052 56 201 0.0 3.0 0.12 0.25 0.25 90 995.4
20260904090041 56 142 0.0 3.0 0.12 0.20 0.20 90 995.6
20260904083132 56 92 0.0 2.0 0.05 0.12 0.12 90 995.8
20260904080021 55 141 0.0 3.0 0.00 0.07 0.07 92 996.0
20260904073112 55 129 0.0 2.0 0.02 0.07 0.07 94 996.1
20260904063052 54 180 0.0 1.0 0.02 0.04 0.04 98 996.5
20260904060104 53 180 0.0 1.0 0.02 0.02 0.02 97 996.6
20260904053033 52 180 0.0 1.0 0.02 0.02 0.02 96 996.7
20260904050044 52 180 0.0 2.0 0.00 0.00 0.00 96 996.7
20260904043114 52 180 0.0 2.0 0.00 0.00 0.00 95 996.8
20260904040126 52 180 0.0 2.0 0.00 0.00 0.00 95 996.9
20260904033116 52 0.0 0.0 0.00 0.00 0.00 95 997.0
20260904030045 52 180 0.0 1.0 0.00 0.00 0.00 94 997.2
20260904023057 52 180 1.0 2.0 0.00 0.00 0.00 94 997.2